W7KKE-3 Weather Reports


Display with metric or nautical units.
time (UTC)temp
F
wind
direction
speed
MPH
gust
MPH
rain 1hr
in
rain 24hr
in
rain mn
in
humidity
%
barometer
mb
20141023003656 58 196 2.0 9.0 0.01 1.20 1.16 94 1005.9
20141023003157 58 186 2.0 9.0 0.01 1.20 1.16 94 1005.7
20141023002656 58 131 3.0 9.0 0.01 1.20 1.16 94 1005.7
20141023002157 58 145 4.0 8.0 0.01 1.20 1.16 94 1005.8
20141023001658 58 114 0.0 8.0 0.01 1.20 1.16 94 1005.9
20141023001156 58 107 2.0 8.0 0.01 1.20 1.16 94 1005.7
20141023000656 58 142 3.0 13.0 0.01 1.20 1.16 94 1005.8
20141023000156 58 145 3.0 13.0 0.01 1.19 1.16 94 1005.9
20141022235657 58 130 2.0 13.0 0.01 1.19 1.15 94 1005.8
20141022235156 58 154 7.0 9.0 0.03 1.19 1.15 94 1005.7
20141022234656 58 133 4.0 9.0 0.03 1.19 1.15 94 1005.5
20141022234157 58 162 5.0 12.0 0.06 1.19 1.15 94 1005.6
20141022233656 58 100 6.0 12.0 0.06 1.19 1.15 95 1005.5
20141022233157 58 142 3.0 12.0 0.11 1.19 1.15 95 1005.4
20141022232656 58 120 1.0 8.0 0.11 1.19 1.15 95 1005.2
20141022232157 58 138 2.0 8.0 0.16 1.19 1.15 95 1005.1
20141022231657 58 144 2.0 7.0 0.16 1.19 1.15 95 1005.3
20141022231157 58 156 3.0 7.0 0.19 1.19 1.15 95 1005.2
20141022230657 58 107 1.0 7.0 0.19 1.19 1.15 95 1005.4
20141022230156 58 169 3.0 7.0 0.20 1.15 1.15 95 1005.6
20141022225656 58 145 3.0 5.0 0.20 1.14 1.14 95 1005.8
20141022225157 58 175 0.0 5.0 0.20 1.14 1.14 95 1005.8
20141022224656 58 127 1.0 11.0 0.20 1.13 1.13 95 1006.2
20141022224157 58 135 1.0 11.0 0.18 1.11 1.11 94 1006.3
20141022223657 58 163 1.0 11.0 0.18 1.09 1.09 94 1006.6
20141022223157 58 130 2.0 9.0 0.17 1.07 1.07 94 1006.8
20141022222657 58 149 1.0 9.0 0.17 1.05 1.05 94 1006.9
20141022222157 58 124 2.0 9.0 0.14 1.02 1.02 94 1006.8
20141022221657 58 86 0.0 9.0 0.14 1.00 1.00 94 1006.6
20141022221157 58 138 1.0 8.0 0.11 1.00 0.98 94 1006.6
20141022220657 58 184 1.0 5.0 0.11 1.00 0.96 94 1006.5
20141022220157 58 134 1.0 3.0 0.09 0.95 0.95 94 1006.3
20141022215657 58 120 0.0 1.0 0.09 0.94 0.94 94 1006.2
20141022215157 58 0 0.0 0.0 0.10 0.93 0.93 94 1006.2
20141022214657 58 0 0.0 3.0 0.10 0.92 0.92 94 1006.1
20141022214157 58 0 0.0 3.0 0.12 0.91 0.91 94 1006.3
20141022213657 58 147 0.0 3.0 0.12 0.91 0.91 94 1006.2
20141022213157 58 0 0.0 0.0 0.11 0.90 0.90 94 1006.2
20141022212658 58 0 0.0 0.0 0.11 0.89 0.88 94 1006.4
20141022212158 58 0 0.0 0.0 0.12 0.89 0.86 94 1006.3
20141022211657 58 0 0.0 3.0 0.12 0.89 0.85 94 1006.4
20141022211157 58 0 0.0 3.0 0.15 0.89 0.85 94 1006.3
20141022210657 58 102 0.0 3.0 0.15 0.89 0.85 94 1006.0
20141022210156 58 75 1.0 6.0 0.18 0.85 0.85 94 1006.0
20141022205657 58 88 0.0 6.0 0.18 0.85 0.85 94 1006.2
20141022205158 58 113 1.0 6.0 0.18 0.84 0.84 94 1006.3
20141022204657 58 50 0.0 0.0 0.18 0.83 0.83 94 1006.0
20141022204157 58 107 0.0 8.0 0.19 0.81 0.81 94 1006.0
20141022203656 58 120 0.0 8.0 0.19 0.79 0.79 94 1006.3
20141022203157 59 156 2.0 8.0 0.19 0.77 0.77 94 1006.9
20141022202657 59 162 0.0 5.0 0.19 0.76 0.76 94 1006.9
20141022202157 59 96 0.0 5.0 0.19 0.75 0.75 94 1006.8
20141022201157 59 130 2.0 7.0 0.19 0.74 0.71 94 1006.9
20141022200657 59 147 1.0 7.0 0.19 0.74 0.70 94 1006.9
20141022200157 59 215 4.0 7.0 0.18 0.69 0.69 94 1007.0
20141022195657 59 130 0.0 7.0 0.18 0.67 0.67 94 1007.2
20141022195157 59 64 0.0 7.0 0.17 0.66 0.66 94 1007.2
20141022194657 59 110 0.0 4.0 0.17 0.65 0.65 94 1007.0
20141022192157 58 109 0.0 2.0 0.18 0.56 0.56 94 1007.4
20141022191657 58 124 0.0 2.0 0.18 0.55 0.54 94 1007.5
20141022191157 58 78 0.0 2.0 0.18 0.55 0.53 94 1007.5
20141022185657 58 121 0.0 2.0 0.19 0.49 0.49 94 1007.6
20141022185157 58 79 0.0 2.0 0.19 0.48 0.48 94 1007.7
20141022184657 58 82 0.0 2.0 0.19 0.47 0.47 94 1007.6
20141022184157 58 71 0.0 2.0 0.17 0.45 0.45 94 1007.7
20141022183157 58 109 0.0 6.0 0.16 0.42 0.42 94 1007.9
20141022182657 58 128 1.0 6.0 0.16 0.40 0.40 94 1007.9
20141022182157 58 96 0.0 3.0 0.15 0.37 0.37 94 1008.1
20141022181657 58 0 0.0 3.0 0.15 0.37 0.36 94 1007.9
20141022181157 58 119 0.0 3.0 0.17 0.37 0.35 94 1008.0
20141022174658 58 0 0.0 2.0 0.18 5.11 0.28 94 1007.5
20141022174157 58 85 0.0 2.0 0.19 5.11 0.27 94 1007.4
20141022173657 58 0 0.0 3.0 0.19 5.11 0.26 94 1007.5
20141022172157 58 137 1.0 11.0 5.11 5.11 0.23 93 1007.6
20141022171657 58 144 0.0 11.0 5.11 5.11 0.21 93 1007.6
20141022165657 59 179 3.0 10.0 5.07 5.07 0.11 93 1007.9
20141022165157 59 243 0.0 10.0 5.07 5.07 0.11 93 1007.9
20141022164657 59 219 6.0 10.0 5.07 5.07 0.10 94 1008.0
20141022164157 58 103 1.0 9.0 5.05 5.05 0.09 93 1008.0
20141022163657 58 169 2.0 9.0 5.05 5.05 0.07 93 1007.9
20141022163157 59 137 5.0 12.0 5.02 5.02 0.05 92 1008.0
20141022162657 59 113 6.0 12.0 5.02 5.02 0.03 93 1008.3
20141022162157 59 124 4.0 12.0 0.11 0.48 0.03 93 1008.4
20141022160812 60 128 7.0 25.0 0.11 0.48 0.48 93 1008.2
20141022160312 60 128 7.0 25.0 0.11 0.48 0.48 93 1008.1
20141022155813 60 100 11.0 25.0 0.11 0.46 0.46 93 1008.2
20141022155312 60 144 8.0 25.0 0.10 0.46 0.46 93 1008.2
20141022154812 60 116 7.0 18.0 0.10 0.44 0.45 93 1008.4
20141022154313 60 140 5.0 14.0 0.08 0.42 0.42 93 1008.3
20141022153812 60 137 9.0 18.0 0.08 0.41 0.41 93 1008.2
20141022153312 60 147 11.0 18.0 0.11 0.41 0.40 92 1008.2
20141022152812 60 126 6.0 18.0 0.11 0.41 0.39 92 1008.2
20141022152313 60 172 10.0 18.0 0.12 0.41 0.38 92 1008.3
20141022151812 60 119 4.0 18.0 0.12 0.41 0.38 92 1008.1
20141022151313 60 149 3.0 18.0 0.12 0.41 0.37 92 1008.2
20141022150812 60 126 6.0 18.0 0.12 0.41 0.37 92 1008.2
20141022150313 60 124 8.0 16.0 0.14 0.36 0.36 92 1008.2
20141022145812 60 95 11.0 25.0 0.14 0.36 0.36 92 1008.2
20141022145312 60 110 9.0 25.0 0.14 0.35 0.35 92 1008.2
20141022144812 60 166 7.0 25.0 0.14 0.34 0.34 92 1008.2
20141022144312 60 147 8.0 25.0 0.12 0.33 0.33 92 1008.1
20141022143812 60 141 9.0 25.0 0.12 0.33 0.33 92 1008.0
20141022143312 60 140 12.0 23.0 0.08 0.31 0.31 92 1008.1
20141022142813 60 119 13.0 29.0 0.08 0.29 0.29 92 1008.1
20141022142312 60 156 13.0 29.0 0.06 0.29 0.27 92 1008.2
20141022141812 60 156 8.0 29.0 0.06 0.29 0.27 92 1008.3
20141022141312 60 161 17.0 27.0 0.05 0.29 0.26 91 1008.3
20141022140812 60 158 12.0 19.0 0.05 0.29 0.25 91 1008.3
20141022140312 60 134 11.0 19.0 0.01 0.24 0.23 91 1008.2
20141022135812 60 145 10.0 31.0 0.01 0.24 0.21 91 1008.1
20141022135312 60 151 12.0 31.0 0.02 0.24 0.20 91 1008.0
20141022134812 60 191 15.0 31.0 0.02 0.24 0.20 91 1008.0
20141022134312 60 128 11.0 28.0 0.08 0.24 0.20 91 1008.0
20141022133812 60 141 9.0 28.0 0.08 0.24 0.20 91 1008.0
20141022133312 60 147 15.0 28.0 0.10 0.24 0.20 91 1008.1
20141022132812 60 180 14.0 28.0 0.10 0.24 0.20 91 1008.0
20141022132312 60 155 11.0 26.0 0.10 0.24 0.20 91 1007.9
20141022131812 60 154 14.0 30.0 0.10 0.24 0.20 91 1008.0
20141022131312 60 162 11.0 30.0 0.10 0.24 0.20 91 1007.9
20141022130812 60 176 13.0 30.0 0.10 0.24 0.20 91 1007.9
20141022130313 60 140 15.0 30.0 0.11 0.20 0.20 91 1007.9
20141022125816 60 145 15.0 32.0 0.11 0.20 0.20 91 1008.0
20141022125312 60 119 16.0 32.0 0.10 0.19 0.19 91 1007.9
20141022124812 60 135 16.0 32.0 0.10 0.19 0.19 91 1008.0
20141022124312 60 201 13.0 29.0 0.04 0.15 0.16 91 1008.0
20141022123812 60 170 11.0 29.0 0.04 0.14 0.14 90 1008.0
20141022123312 60 102 17.0 31.0 0.03 0.14 0.12 90 1008.2
20141022122812 60 145 10.0 31.0 0.03 0.14 0.10 90 1008.2
20141022122312 60 133 12.0 31.0 0.03 0.14 0.10 90 1008.1
20141022121812 60 151 11.0 35.0 0.03 0.14 0.10 90 1008.2
20141022121312 60 159 12.0 35.0 0.03 0.14 0.10 90 1008.3
20141022120812 60 151 14.0 35.0 0.03 0.14 0.10 90 1008.2
20141022120312 60 133 13.0 33.0 0.02 0.11 0.10 90 1008.3
20141022115812 60 210 8.0 32.0 0.02 0.11 0.10 90 1008.4
20141022115312 60 126 13.0 32.0 0.01 0.11 0.09 90 1008.3
20141022114813 60 151 11.0 32.0 0.01 0.11 0.09 90 1008.2
20141022114312 60 165 15.0 30.0 0.01 0.11 0.08 89 1008.2
20141022113812 60 163 7.0 30.0 0.01 0.11 0.08 89 1008.2
20141022113312 60 155 13.0 26.0 0.00 0.11 0.07 89 1008.2
20141022112812 60 114 15.0 33.0 0.00 0.11 0.07 89 1008.2
20141022112312 60 124 15.0 33.0 0.00 0.11 0.07 89 1008.2
20141022111812 60 161 12.0 33.0 0.00 0.11 0.07 89 1008.0
20141022111312 60 190 19.0 40.0 0.00 0.11 0.07 89 1008.2
20141022110812 60 161 12.0 40.0 0.00 0.11 0.07 89 1008.3
20141022110312 60 149 9.0 40.0 0.00 0.11 0.07 89 1008.5
20141022105812 60 170 14.0 37.0 0.00 0.11 0.07 89 1008.6
20141022105312 60 203 15.0 30.0 0.00 0.11 0.07 89 1008.4
20141022104812 60 162 16.0 37.0 0.00 0.11 0.07 88 1008.4
20141022104312 60 156 13.0 37.0 0.00 0.11 0.07 88 1008.3
20141022103813 60 119 15.0 37.0 0.00 0.11 0.07 88 1008.2
20141022103312 60 246 13.0 29.0 0.00 0.11 0.07 88 1008.3
20141022102812 60 183 15.0 29.0 0.00 0.11 0.07 89 1008.5
20141022102312 60 145 13.0 26.0 0.01 0.11 0.07 88 1008.5
20141022101813 60 149 13.0 28.0 0.01 0.11 0.07 88 1008.5
20141022101312 60 170 11.0 28.0 0.01 0.11 0.07 88 1008.4
20141022100812 60 141 13.0 28.0 0.01 0.11 0.07 89 1008.5
20141022100313 60 134 12.0 33.0 0.02 0.30 0.07 89 1008.4
20141022095812 60 127 11.0 33.0 0.02 0.30 0.07 89 1008.4
20141022095312 60 200 15.0 33.0 0.02 0.30 0.07 89 1008.5
20141022094813 60 121 18.0 21.0 0.02 0.30 0.07 89 1008.6
20141022094312 60 184 13.0 35.0 0.02 0.30 0.07 89 1008.6
20141022093812 60 133 18.0 35.0 0.02 0.30 0.07 89 1008.6
20141022093313 60 71 9.0 35.0 0.02 0.30 0.07 89 1008.4
20141022092812 60 154 19.0 30.0 0.02 0.30 0.07 89 1008.4
20141022092312 60 182 14.0 26.0 0.02 0.30 0.07 89 1008.5
20141022091812 60 140 12.0 26.0 0.02 0.30 0.06 89 1008.5
20141022091312 60 138 12.0 36.0 0.02 0.30 0.06 89 1008.5
20141022090813 60 169 11.0 36.0 0.02 0.30 0.06 89 1008.5
20141022090312 60 138 8.0 36.0 0.01 0.38 0.06 88 1008.6
20141022085812 60 190 15.0 30.0 0.01 0.38 0.06 88 1008.4
20141022085312 60 163 10.0 30.0 0.02 0.38 0.05 88 1008.5
20141022084812 60 210 17.0 30.0 0.02 0.38 0.05 88 1008.5
20141022084312 60 168 17.0 33.0 0.03 0.38 0.05 88 1008.5
20141022083812 60 99 10.0 33.0 0.03 0.38 0.05 88 1008.3
20141022083313 60 161 11.0 33.0 0.03 0.38 0.05 88 1008.4
20141022082812 60 172 15.0 29.0 0.03 0.38 0.05 88 1008.5
20141022082312 59 145 11.0 34.0 0.02 0.38 0.05 88 1008.4
20141022081812 59 158 11.0 34.0 0.02 0.38 0.04 88 1008.5
20141022081312 59 169 12.0 34.0 0.03 0.38 0.04 88 1008.5
20141022080812 59 135 16.0 33.0 0.03 0.38 0.04 88 1008.6
20141022080313 59 148 14.0 25.0 0.03 0.38 0.04 88 1008.6
20141022075812 59 161 13.0 22.0 0.03 0.38 0.04 88 1008.5
20141022075312 59 134 15.0 21.0 0.03 0.38 0.04 88 1008.4
20141022074812 59 79 10.0 21.0 0.03 0.38 0.03 88 1008.4
20141022074312 59 131 9.0 21.0 0.03 0.38 0.02 88 1008.3
20141022073812 59 142 7.0 21.0 0.03 0.38 0.02 88 1008.3
20141022073313 58 148 12.0 24.0 0.03 0.38 0.02 88 1008.2
20141022072812 58 140 9.0 24.0 0.03 0.38 0.02 87 1008.3
20141022072312 58 147 9.0 24.0 0.03 0.38 0.02 87 1008.4
20141022071812 58 141 6.0 24.0 0.03 0.38 0.02 87 1008.4
20141022071312 58 140 10.0 24.0 0.02 0.38 0.01 87 1008.4
20141022070812 58 145 10.0 24.0 0.02 0.38 0.01 87 1008.3
20141022070312 58 151 6.0 17.0 0.03 0.38 0.01 86 1008.5
20141022065812 58 107 6.0 22.0 0.03 0.38 0.38 86 1008.5
20141022065312 58 154 9.0 22.0 0.03 0.37 0.37 86 1008.4
20141022064812 58 155 8.0 22.0 0.03 0.37 0.37 86 1008.5
20141022064312 58 148 6.0 22.0 0.02 0.37 0.37 86 1008.5
20141022063812 58 119 8.0 13.0 0.02 0.36 0.36 86 1008.6
20141022063312 58 107 5.0 21.0 0.02 0.36 0.36 86 1008.8
20141022062812 58 142 8.0 21.0 0.02 0.36 0.36 86 1008.8
20141022062312 58 166 6.0 21.0 0.02 0.36 0.36 86 1008.8
20141022061812 58 68 6.0 19.0 0.02 0.36 0.36 86 1008.9
20141022061312 58 155 2.0 19.0 0.02 0.36 0.36 85 1009.0
20141022060812 58 159 7.0 10.0 0.02 0.36 0.36 85 1008.9
20141022060312 58 105 5.0 20.0 0.01 0.36 0.36 84 1008.9
20141022055812 59 133 9.0 20.0 0.01 0.35 0.35 83 1009.1
20141022055312 59 165 8.0 20.0 0.00 0.34 0.34 82 1009.2
20141022054812 59 170 10.0 19.0 0.00 0.34 0.34 81 1009.0
20141022054312 59 156 6.0 19.0 0.00 0.34 0.34 81 1009.2
20141022053812 59 98 6.0 19.0 0.00 0.34 0.34 81 1009.3
20141022053312 59 107 9.0 12.0 0.00 0.34 0.34 80 1009.2
20141022052812 59 154 4.0 20.0 0.00 0.34 0.34 80 1009.3
20141022052313 59 117 7.0 20.0 0.00 0.34 0.34 80 1009.3
20141022051812 59 112 9.0 20.0 0.00 0.34 0.34 80 1009.3
20141022051312 59 161 3.0 19.0 0.00 0.34 0.34 80 1009.2
20141022050812 59 128 7.0 19.0 0.00 0.34 0.34 80 1009.2
20141022050312 59 116 5.0 19.0 0.00 0.50 0.34 80 1009.4
20141022045812 59 133 7.0 18.0 0.00 0.50 0.34 80 1009.4
20141022045312 59 114 7.0 18.0 0.00 0.50 0.34 79 1009.5
20141022044812 59 121 6.0 18.0 0.00 0.50 0.34 80 1009.5
20141022044312 59 147 5.0 13.0 0.00 0.50 0.34 80 1009.5
20141022043812 59 151 7.0 18.0 0.00 0.50 0.34 81 1009.5
20141022043312 59 106 6.0 18.0 0.00 0.50 0.34 81 1009.6
20141022042812 59 133 4.0 18.0 0.00 0.50 0.34 81 1009.7
20141022042312 59 154 8.0 18.0 0.00 0.50 0.34 81 1009.7
20141022041812 59 162 3.0 18.0 0.00 0.50 0.34 82 1009.8
20141022041312 59 116 8.0 15.0 0.00 0.50 0.34 82 1009.9
20141022040812 59 151 4.0 15.0 0.00 0.50 0.34 82 1009.9
20141022040312 59 56 5.0 14.0 0.01 0.50 0.34 82 1010.2
20141022035812 59 127 4.0 14.0 0.01 0.50 0.34 82 1010.3
20141022035312 59 176 8.0 14.0 0.01 0.50 0.34 82 1010.3
20141022034812 59 155 8.0 11.0 0.01 0.50 0.34 82 1010.4
20141022034312 59 89 5.0 9.0 0.01 0.50 0.34 83 1010.5
20141022033812 59 155 6.0 14.0 0.01 0.50 0.34 83 1010.5
20141022033312 59 119 3.0 14.0 0.01 0.50 0.34 83 1010.6
20141022032812 59 44 7.0 14.0 0.01 0.50 0.34 83 1010.8
20141022032312 59 141 4.0 12.0 0.01 0.50 0.34 83 1010.9
20141022031812 59 123 6.0 12.0 0.01 0.50 0.34 83 1010.9
20141022031312 59 88 6.0 12.0 0.01 0.50 0.34 82 1011.0
20141022030812 60 165 5.0 7.0 0.01 0.50 0.34 82 1011.1
20141022030312 60 145 2.0 13.0 0.00 0.49 0.34 82 1011.2
20141022025812 60 154 3.0 13.0 0.00 0.49 0.33 81 1011.3
20141022025312 60 127 2.0 13.0 0.00 0.49 0.33 81 1011.3
20141022024812 60 149 6.0 14.0 0.00 0.49 0.33 80 1011.5
20141022024312 60 170 5.0 14.0 0.00 0.49 0.33 80 1011.5
20141022023812 60 149 1.0 14.0 0.00 0.49 0.33 79 1011.7
20141022023312 60 135 5.0 14.0 0.00 0.49 0.33 79 1011.7
20141022022812 60 131 5.0 14.0 0.00 0.49 0.33 78 1011.7
20141022022312 60 128 5.0 14.0 0.00 0.49 0.33 78 1011.7
20141022021812 61 130 4.0 18.0 0.00 0.49 0.33 78 1011.7
20141022021312 61 148 6.0 18.0 0.00 0.49 0.33 78 1011.7
20141022020812 61 168 6.0 18.0 0.00 0.49 0.33 78 1011.8
20141022020312 61 173 4.0 16.0 0.00 0.49 0.33 78 1011.8
20141022015812 61 141 6.0 16.0 0.00 0.49 0.33 78 1011.8
20141022015312 61 126 6.0 14.0 0.00 0.49 0.33 78 1011.8
20141022014812 61 137 4.0 14.0 0.00 0.49 0.33 78 1012.0
20141022014312 61 103 5.0 14.0 0.00 0.49 0.33 78 1012.0
20141022013812 61 93 6.0 8.0 0.00 0.49 0.33 78 1011.9
20141022013312 61 98 4.0 12.0 0.00 0.49 0.33 78 1012.0
20141022012812 61 103 5.0 12.0 0.00 0.49 0.33 78 1012.0
20141022012312 61 155 6.0 12.0 0.00 0.49 0.33 78 1012.1
20141022011811 61 58 8.0 11.0 0.00 0.49 0.33 78 1012.2
20141022011312 61 173 3.0 11.0 0.00 0.49 0.33 78 1012.2
20141022010811 61 119 4.0 11.0 0.00 0.49 0.33 78 1012.3
20141022010312 61 126 2.0 16.0 0.00 0.49 0.33 78 1012.3
20141022005812 61 137 8.0 16.0 0.00 0.49 0.33 78 1012.4
20141022005311 62 148 2.0 16.0 0.00 0.49 0.33 77 1012.5
20141022004811 62 161 10.0 16.0 0.00 0.49 0.33 77 1012.5
20141022004312 62 200 5.0 16.0 0.00 0.49 0.33 77 1012.6